Probability
0 0 0 0 0 0 0 0 0 0 0 0 0 0 0 0 0 0 0 0 0 0 0 0 0 0 0 0 0 0 0 0 0 0 0 0 0 0 0 0 0 0 0
0 0 0 0 0 0 0 0 0 0 0 0 0 0 0 0 0 0 0 0 0 0 0 0 0 0 0 0 0 0 0 0 0 0 0 0 0 0 0 0 0 0 0
0 0 0 0 0 0 0 0 0 0 0 0 0 0 0 0 0 0 0 0 0 0 0 0 0 0 0 0 0 0 0 0 0 0 0 0 0 0 0 0 0 0 0
0 0 0 0 0 0 0 0 0 0 0 0 0 0 0 0 0 0 0 0 0 0 0 0 0 0 0 0 0 0 0 0 0 0 0 0 0 0 0 0 0 0 0
0 0 0 0 0 0 0 0 0 0 0 0 0 0 0 0 0 0 0 0 0 0 0 0 0 0 0 0 0 0 0 0 0 0 0 0 0 0 0 0 0 0 0
0 0 0 0 0 0 0 0 0 0 0 0 0 0 0 0 0 0 0 0 0 0 0 0 0 0 0 0 0 0 0 0 0 0 0 0 0 0 0 0 0 0 0
0 0 0 0 0 0 0 0 0 0 0 0 0 0 0 0 0 0 0 0 0 0 0 0 0 0 0 0 0 0 0 0 0 0 0 0 0 0 0 0 0 0 0
0 0 0 0 0 0 0 0 0 0 0 0 0 0 0 0 0 0 0 0 0 0 0 0 0 0 0 0 0 0 0 0 0 0 0 0 0 0 0 0 0 0 0
0 0 0 0 0 0 0 0 0 0 0 0 0 0 0 0 0 0 0 0 0 0 0 0 0 0 0 0 0 0 0 0 0 0 0 0 0 0 0 0 0 0 0
0 0 0 0 0 0 0 0 0 0 0 0 0 0 0 0 0 0 0 0 0 0 0 0 0 0 0 0 0 0 0 0 0 0 0 0 0 0 0 0 0 0 0
0 0 0 0 0 0 0 0 0 0 0 0 0 0 0 0 0 0 0 0 0 0 0 0 0 0 0 0 0 0 0 0 0 0 0 0 0 0 0 0 0 0 0
0 0 0 0 0 0 0 0 0 0 0 0 0 0 0 0 0 0 0 0 0 0 0 0 0 0 0 0 0 0 0 0 0 0 0 0 0 0 0 0 0 0 0
0 0 0 0 0 0 0 0 0 0 0 0 0 0 0 0 0 0 0 0 0 0 0 0 0 0 0 0 0 0 0 0 0 0 0 0 0 0 0 0 0 0 0
0 0 0 0 0 0 0 0 0 0 0 0 0 0 0 0 0 0 0 0 0 0 0 0 0 0 0 0 0 0 0 0 0 0 0 0 0 0 0 0 0 0 0
0 0 0 0 0 0 0 0 0 0 0 0 0 0 0 0 0 0 0 0 0 0 0 0 0 0 0 0 0 0 0 0 0 0 0 0 0 0 0 0 0 0 0
0 0 0 0 0 0 0 0 0 0 0 0 0 0 0 0 0 0 0 0 0 0 0 0 0 0 0 0 0 0 0 0 0 0 0 0 0 0 0 0 0 0 0
0 0 0 0 0 0 0 0 0 0 0 0 0 0 0 0 0 0 0 0 0 0 0 0 0 0 0 0 0 0 0 0 0 0 0 0 0 0 0 0 0 0 0
0 0 0 0 0 0 0 0 0 0 0 0 0 0 0 0 0 0 0 0 0 0 0 0 0 0 0 0 0 0 0 0 0 0 0 0 0 0 0 0 0 0 0
0 0 0 0 0 0 0 0 0 0 0 0 0 0 0 0 0 0 0 0 0 0 0 0 0 0 0 0 0 0 0 0 0 0 0 0 0 0 0 0 0 0 0
0 0 0 0 0 0 0 0 0 0 0 0 0 0 0 0 0 0 0 0 0 0 0 0 0 0 0 0 0 0 0 0 0 0 0 0 0 0 0 0 0 0 0
0 0 0 0 0 0 0 0 0 0 0 0 0 0 0 0 0 0 0 0 0 0 0 0 0 0 0 0 0 0 0 0 0 0 0 0 0 0 0 0 0 0 0
0 0 0 0 0 0 0 0 0 0 0 0 0 0 0 0 0 0 0 0 0 0 0 0 0 0 0 0 0 0 0 0 0 0 0 0 0 0 0 0 0 0 0
0 0 0 0 0 0 0 0 0 0 0 0 0 0 0 0 0 0 0 0 0 0 0 0 0 0 0 0 0 0 0 0 0 0 0 0 0 0 0 0 0 0 0
0 0 0 0 0 0 0 0 0 0 0 0 0 0 0 0 0 0 0 0 0 0 0 0 0 0 0 0 0 0 0 0 0 0 0 0 0 0 0 0 0 0 0
0 0 0 0 0 0 0 0 0 0 0 0 0 0 0 0 0 0 0 0 0 0 0 0 0 0 0 0 0 0 0 0 0 0 0 0 0 0 0 0 0 0 0
0 0 0 0 0 0 0 0 0 0 0 0 0 0 0 0 0 0 0 0 0 0 0 0 0 0 0 0 0 0 0 0 0 0 0 0 0 0 0 0 0 0 0
Wind_Speed
6 5 5 5 4 4 4 4 4 3 4 4 4 3 3 2 3 3 3 3 3 3 2 3 3 3 2 2 2 2 2 3 3 0 1 1 2 2 2 2 2 2 2
6 5 5 5 4 4 4 4 4 4 4 4 4 3 3 3 3 3 3 3 3 3 2 3 3 3 3 2 2 3 2 2 3 2 1 2 1 1 1 2 2 1 1
6 6 5 5 5 5 4 4 4 4 4 4 4 4 3 3 3 3 4 3 3 3 3 3 3 3 3 2 3 3 2 3 2 3 1 1 1 2 2 2 3 2 2
6 6 6 5 5 5 5 4 4 4 4 4 3 4 4 3 3 3 4 3 3 3 3 3 3 3 3 3 3 3 3 4 3 3 2 1 1 2 2 2 2 2 2
7 6 6 6 5 5 5 4 4 4 5 4 4 3 4 3 4 4 4 4 4 4 3 3 2 4 4 4 4 3 4 3 3 3 2 2 2 1 1 1 1 2 2
7 7 6 6 6 6 5 5 5 4 4 4 4 4 4 3 6 8 6 4 4 4 3 2 2 3 4 6 7 7 6 5 4 3 2 1 0 1 0 1 1 2 3
7 7 7 7 7 6 6 5 5 5 4 4 4 5 4 4 8 8 8 5 4 3 3 2 2 3 3 3 5 6 4 4 5 4 3 2 1 2 1 1 0 1 1
6 7 7 7 7 6 6 6 5 4 4 4 4 4 4 4 7 8 9 6 5 3 2 3 3 2 3 4 4 4 3 3 2 2 2 2 2 1 2 2 1 0 1
7 7 7 8 7 7 7 6 5 5 4 3 4 5 4 3 6 8 8 5 4 3 3 3 3 3 4 7 6 5 3 3 4 5 4 3 4 4 4 3 2 2 2
8 8 8 8 9 8 8 6 4 5 5 4 4 4 5 4 5 7 8 4 4 3 2 2 3 4 5 7 5 5 4 1 2 3 4 4 4 4 5 3 2 2 1
7 6 7 7 8 8 7 5 5 5 5 5 4 3 3 4 5 7 8 4 4 4 3 1 2 5 7 7 6 4 4 3 2 2 2 2 3 2 2 2 2 2 2
7 7 7 7 7 7 7 6 6 6 6 5 4 3 1 2 3 5 8 7 7 5 3 2 3 6 7 7 5 5 6 5 3 3 2 2 2 1 1 1 1 1 1
8 8 7 6 5 6 7 7 5 5 5 4 4 4 2 1 2 5 7 8 8 5 3 5 6 6 6 5 6 6 5 4 3 3 2 1 1 1 1 2 3 3 3
9 8 7 6 5 5 5 5 5 6 5 5 5 4 3 2 2 2 3 4 6 4 3 5 7 7 5 5 5 4 3 3 3 2 1 1 1 2 2 1 1 2 2
8 7 6 6 6 5 4 4 6 5 7 7 6 5 5 5 5 8 7 5 5 5 5 3 3 2 2 2 2 2 2 2 2 1 1 1 1 1 1 1 1 1 1
8 7 6 5 5 5 5 3 3 3 6 8 7 7 5 6 8 9 9 9 10 11 7 4 3 2 2 2 2 1 1 1 1 1 1 1 1 1 1 1 1 1 1
8 7 5 5 5 5 5 6 4 3 4 4 5 7 7 9 10 10 10 9 9 10 5 3 3 3 2 2 2 2 1 1 1 2 1 1 1 1 1 1 1 1 1
7 7 7 5 5 5 5 5 5 5 3 1 2 4 7 8 9 10 11 9 5 4 3 3 3 3 3 3 2 2 2 1 1 1 1 1 1 1 1 0 0 0 1
7 5 5 5 5 5 5 5 5 5 4 3 2 2 5 6 7 8 9 5 5 4 3 3 3 3 3 3 2 2 2 2 1 1 1 1 0 1 0 0 0 1 1
5 8 7 6 5 5 5 5 5 5 5 4 4 3 3 4 4 4 3 3 4 4 4 3 3 3 3 3 2 2 2 2 1 1 1 1 0 1 1 1 0 0 1
5 7 8 6 5 5 5 5 5 5 5 4 3 4 7 5 5 5 4 3 4 4 4 4 3 3 3 2 2 3 3 2 1 1 1 1 0 0 0 0 0 0 1
6 5 5 5 5 5 5 4 4 5 5 5 3 4 7 4 3 4 4 3 3 3 3 3 3 3 3 3 3 3 3 2 1 1 1 1 1 0 0 0 0 1 1
6 6 5 5 5 6 5 4 4 4 4 4 4 4 4 4 3 3 4 3 3 3 3 3 3 2 2 2 2 3 3 3 2 2 2 1 1 0 0 0 0 0 1
6 7 6 5 5 5 5 5 4 4 4 4 4 4 4 4 4 4 3 3 3 3 3 3 3 4 5 3 2 2 2 2 2 2 3 2 1 1 0 0 0 1 1
6 6 6 6 6 5 5 5 4 5 5 4 4 4 4 4 4 4 3 3 4 4 4 4 3 4 5 5 4 3 4 4 3 2 2 2 1 1 1 0 0 1 1
6 6 6 5 5 5 5 5 5 4 4 4 4 4 5 5 4 4 4 4 4 4 4 3 4 5 5 4 4 5 5 4 4 3 2 2 1 1 1 0 0 1 1
Wind_Direction
174 170 160 162 156 149 154 161 161 156 149 146 149 137 127 123 119 114 115 112 106 98 96 104 95 93 87 77 83 85 88 110 122 327 340 343 17 21 12 9 15 20 9
171 164 162 164 155 154 161 162 158 159 155 151 145 133 132 127 121 126 126 115 116 116 116 108 102 102 87 83 86 84 87 104 126 125 1 1 11 0 359 9 4 18 5
166 163 159 164 165 164 165 159 154 147 143 140 133 136 138 136 132 126 123 119 122 125 124 124 123 108 94 89 92 88 83 83 90 115 64 360 357 15 18 10 10 3 9
168 165 168 178 176 169 162 155 151 147 146 145 142 145 142 136 130 124 119 113 109 110 119 129 131 129 135 128 109 102 99 88 82 91 71 24 4 356 33 16 359 348 358
169 174 179 180 171 161 155 153 147 146 149 147 139 132 128 127 133 129 123 119 113 102 95 103 114 125 134 137 128 126 114 103 96 91 79 45 19 13 353 334 355 334 347
173 180 174 167 163 159 157 151 145 143 137 131 136 135 130 133 135 132 128 119 118 118 111 101 99 103 112 115 119 122 125 128 131 121 112 116 266 268 324 26 23 23 347
175 174 169 167 164 166 161 149 149 147 134 129 137 135 133 136 135 130 125 120 118 128 134 127 107 97 103 107 102 95 88 100 131 143 144 177 197 219 155 63 60 116 250
170 172 169 165 164 162 156 156 155 145 142 141 144 145 138 145 143 133 126 114 109 114 125 134 121 104 110 122 112 96 77 61 90 130 151 177 168 169 162 166 182 137 337
170 174 172 165 161 160 162 162 155 141 139 144 146 145 143 148 147 140 129 114 106 99 101 110 122 118 118 123 115 108 86 55 57 77 86 81 76 83 102 87 65 66 13
180 179 175 167 165 168 170 161 149 145 150 146 140 149 151 151 151 148 138 123 117 108 89 86 103 117 119 124 124 124 119 106 68 59 50 44 50 59 78 98 122 110 91
173 162 163 168 170 168 163 155 148 145 140 142 144 148 153 156 153 153 148 137 141 132 121 116 110 116 115 118 121 128 140 133 102 87 62 42 38 39 39 55 91 123 131
158 155 161 168 171 163 154 155 152 148 146 150 145 143 153 170 161 159 156 151 144 138 145 148 129 118 108 107 106 106 108 102 94 84 71 49 39 22 2 23 53 73 120
156 160 160 158 161 158 159 160 153 156 158 163 161 166 174 168 165 159 157 155 150 141 142 137 127 119 107 95 91 96 95 95 97 90 81 42 350 356 29 31 24 32 27
160 161 158 153 151 154 158 161 162 168 170 170 171 174 175 166 172 165 155 149 142 132 123 116 108 103 92 86 82 81 85 103 115 118 115 41 27 37 36 35 34 23 28
159 160 157 155 156 150 151 163 171 179 179 175 181 177 173 186 198 176 163 161 160 148 127 101 93 95 90 79 74 75 79 88 93 94 93 71 50 49 23 23 42 47 49
155 159 158 155 152 148 141 117 95 133 161 170 171 171 178 177 163 163 164 159 150 141 125 126 137 146 154 156 145 118 97 113 122 115 105 102 86 60 28 24 41 58 20
159 162 158 156 155 153 154 152 141 92 94 122 156 169 163 157 156 157 155 146 141 139 129 144 156 165 165 158 153 147 145 139 123 117 113 115 104 72 55 29 24 21 353
157 159 156 156 156 157 160 160 157 152 145 114 107 149 156 152 152 152 141 124 122 137 150 158 167 166 161 160 158 155 144 118 111 116 115 108 112 107 78 26 11 358 330
152 152 152 147 149 152 154 152 150 151 147 137 118 113 132 133 131 138 139 138 153 161 168 167 164 159 158 158 155 150 145 142 133 129 126 126 134 124 132 272 274 351 12
147 149 147 146 146 147 148 148 151 152 151 153 159 159 138 123 128 141 152 154 156 161 164 163 159 156 156 154 151 147 140 138 140 143 156 169 180 165 193 227 227 269 315
146 150 146 145 151 153 151 155 158 159 160 164 171 164 156 154 158 158 162 166 169 170 165 157 152 154 155 151 153 151 148 153 163 167 169 175 148 134 189 217 263 279 306
148 150 151 151 150 150 152 154 155 156 158 158 147 139 149 142 148 153 160 166 166 161 156 149 150 157 164 165 165 160 156 160 166 163 158 144 127 132 108 335 309 320 320
149 148 147 145 144 145 145 147 151 154 155 156 152 145 148 156 157 161 161 159 152 146 143 144 147 147 141 141 150 157 162 173 174 164 155 146 141 145 135 319 302 298 302
153 154 153 151 146 148 151 153 155 155 155 154 152 151 153 160 161 158 156 146 141 138 139 141 143 143 138 130 122 126 137 142 143 151 153 153 152 138 124 185 281 284 298
154 155 156 156 155 155 154 154 156 157 156 155 155 152 151 153 152 147 141 132 130 127 125 126 127 128 129 128 127 124 121 117 113 116 126 130 128 123 121 118 329 324 318
151 152 154 154 154 154 153 154 154 154 154 153 152 150 149 149 147 141 135 130 128 126 123 121 121 124 125 123 123 121 117 113 108 98 106 120 120 119 114 135 306 316 318